BEL5EK EBBR-EGBB

Flight info

Callsign BEL5EK
Flight time 0h 50m
Altitude 34000
Route DENUT L610 HEMEL
Aircraft A21N/M-SDE2E3FGHIRWXY/LB1

Departure

Time 2026-04-30 19:59
Airport Brussels Airport (EBBR)

Arrival

Time 2026-04-30 20:50
Airport Birmingham Airport (EGBB)
Time Latitude Longitude Altitude Speed Heading
2026-04-30 19:14 50.90045 4.48646 150 ft 0 kts 155°
2026-04-30 19:48 50.90044 4.48647 150 ft 3 kts 152°
2026-04-30 19:48 50.90060 4.48638 150 ft 4 kts 155°
2026-04-30 19:48 50.90077 4.48621 149 ft 4 kts 134°
2026-04-30 19:49 50.90089 4.48597 149 ft 3 kts 124°
2026-04-30 19:49 50.90100 4.48571 148 ft 1 kts 127°
2026-04-30 19:51 50.90099 4.48574 148 ft 1 kts 118°
2026-04-30 19:51 50.90100 4.48589 148 ft 3 kts 73°
2026-04-30 19:51 50.90116 4.48624 148 ft 5 kts 51°
2026-04-30 19:52 50.90142 4.48679 148 ft 7 kts 60°
2026-04-30 19:52 50.90166 4.48761 148 ft 9 kts 67°
2026-04-30 19:52 50.90191 4.48854 148 ft 10 kts 66°
2026-04-30 19:52 50.90220 4.48954 147 ft 10 kts 64°
2026-04-30 19:53 50.90253 4.49059 146 ft 11 kts 64°
2026-04-30 19:53 50.90287 4.49172 144 ft 12 kts 65°
2026-04-30 19:53 50.90320 4.49290 142 ft 10 kts 66°
2026-04-30 19:53 50.90327 4.49400 143 ft 11 kts 128°
2026-04-30 19:54 50.90249 4.49396 144 ft 12 kts 195°
2026-04-30 19:54 50.90165 4.49361 145 ft 13 kts 195°
2026-04-30 19:54 50.90075 4.49324 148 ft 12 kts 193°
2026-04-30 19:54 50.89990 4.49293 149 ft 13 kts 192°
2026-04-30 19:55 50.89954 4.49281 149 ft 0 kts 193°
2026-04-30 19:55 50.89946 4.49277 150 ft 2 kts 197°
2026-04-30 19:55 50.89924 4.49267 150 ft 5 kts 196°
2026-04-30 19:55 50.89883 4.49247 151 ft 8 kts 196°
2026-04-30 19:56 50.89826 4.49223 152 ft 9 kts 195°
2026-04-30 19:56 50.89762 4.49197 151 ft 10 kts 193°
2026-04-30 19:56 50.89693 4.49171 149 ft 10 kts 194°
2026-04-30 19:56 50.89620 4.49163 149 ft 11 kts 153°
2026-04-30 19:57 50.89543 4.49183 149 ft 12 kts 195°
2026-04-30 19:57 50.89456 4.49148 147 ft 13 kts 194°
2026-04-30 19:57 50.89370 4.49113 146 ft 10 kts 193°
2026-04-30 19:57 50.89294 4.49085 146 ft 12 kts 193°
2026-04-30 19:58 50.89209 4.49051 144 ft 13 kts 195°
2026-04-30 19:58 50.89146 4.49040 145 ft 8 kts 142°
2026-04-30 19:58 50.89146 4.49086 146 ft 0 kts 66°
2026-04-30 19:59 50.89183 4.49238 147 ft 47 kts 69°
2026-04-30 19:59 50.89377 4.50081 154 ft 112 kts 71°
2026-04-30 19:59 50.90089 4.53130 792 ft 153 kts 73°
2026-04-30 20:00 50.90503 4.54650 1518 ft 154 kts 68°
2026-04-30 20:00 50.91054 4.56226 2008 ft 172 kts 69°
2026-04-30 20:00 50.91918 4.57729 2530 ft 208 kts 35°
2026-04-30 20:00 50.93447 4.58267 2973 ft 248 kts
2026-04-30 20:01 50.96458 4.54974 4239 ft 286 kts 292°
2026-04-30 20:01 50.96917 4.53025 4903 ft 285 kts 285°
2026-04-30 20:01 50.97556 4.50027 5854 ft 288 kts 288°
2026-04-30 20:02 50.99113 4.44097 7633 ft 295 kts 293°
2026-04-30 20:02 50.99988 4.41135 8518 ft 298 kts 295°
2026-04-30 20:03 51.01836 4.35154 10278 ft 306 kts 296°
2026-04-30 20:03 51.02812 4.32050 10808 ft 324 kts 296°
2026-04-30 20:03 51.03860 4.28738 11160 ft 346 kts 296°
2026-04-30 20:03 51.04976 4.25210 11473 ft 368 kts 296°
2026-04-30 20:04 51.06148 4.21507 12009 ft 379 kts 296°
2026-04-30 20:04 51.07339 4.17743 12763 ft 384 kts 296°
2026-04-30 20:04 51.08544 4.13929 13563 ft 387 kts 296°
2026-04-30 20:05 51.10964 4.06247 14961 ft 395 kts 296°
2026-04-30 20:05 51.12200 4.02315 15620 ft 399 kts 296°
2026-04-30 20:05 51.14707 3.94332 16906 ft 407 kts 296°
2026-04-30 20:06 51.15976 3.90273 17540 ft 411 kts 296°
2026-04-30 20:06 51.17254 3.86182 18163 ft 414 kts 296°
2026-04-30 20:06 51.18546 3.82041 18742 ft 418 kts 296°
2026-04-30 20:06 51.19845 3.77864 19293 ft 421 kts 296°
2026-04-30 20:07 51.21151 3.73661 19835 ft 425 kts 296°
2026-04-30 20:07 51.22452 3.69479 20352 ft 428 kts 296°
2026-04-30 20:07 51.24350 3.60448 21383 ft 433 kts 281°
2026-04-30 20:08 51.24972 3.55720 21913 ft 437 kts 281°
2026-04-30 20:08 51.25593 3.50955 22421 ft 440 kts 281°
2026-04-30 20:08 51.26224 3.46143 22932 ft 443 kts 281°
2026-04-30 20:08 51.26860 3.41311 23412 ft 447 kts 281°
2026-04-30 20:09 51.27499 3.36436 23885 ft 451 kts 281°
2026-04-30 20:09 51.28132 3.31514 24303 ft 454 kts 280°
2026-04-30 20:09 51.29400 3.21590 25205 ft 458 kts 280°
2026-04-30 20:10 51.30672 3.11581 26061 ft 462 kts 280°
2026-04-30 20:10 51.31312 3.06523 26469 ft 464 kts 280°
2026-04-30 20:10 51.31951 3.01462 26858 ft 466 kts 280°
2026-04-30 20:11 51.33235 2.91243 27629 ft 471 kts 279°
2026-04-30 20:11 51.33870 2.86153 27995 ft 474 kts 279°
2026-04-30 20:11 51.34514 2.80973 28347 ft 476 kts 279°
2026-04-30 20:12 51.35800 2.70569 29253 ft 475 kts 279°
2026-04-30 20:12 51.36442 2.65389 29730 ft 474 kts 279°
2026-04-30 20:12 51.37078 2.60219 30197 ft 473 kts 279°
2026-04-30 20:13 51.37710 2.55061 30611 ft 472 kts 279°
2026-04-30 20:13 51.38339 2.49906 31024 ft 471 kts 279°
2026-04-30 20:13 51.38961 2.44779 31406 ft 470 kts 279°
2026-04-30 20:13 51.39585 2.39633 31785 ft 469 kts 279°
2026-04-30 20:14 51.40202 2.34506 32173 ft 468 kts 279°
2026-04-30 20:14 51.40817 2.29389 32545 ft 467 kts 279°
2026-04-30 20:14 51.41429 2.24281 32907 ft 466 kts 279°
2026-04-30 20:14 51.42049 2.19199 33253 ft 466 kts 279°
2026-04-30 20:15 51.42663 2.14177 33597 ft 465 kts 279°
2026-04-30 20:15 51.43292 2.09033 33919 ft 464 kts 279°
2026-04-30 20:15 51.43900 2.04031 34213 ft 464 kts 279°
2026-04-30 20:16 51.45115 1.93897 34280 ft 462 kts 278°
2026-04-30 20:16 51.46301 1.83758 34259 ft 463 kts 278°
2026-04-30 20:17 51.47476 1.73577 34251 ft 464 kts 278°
2026-04-30 20:17 51.48633 1.63411 34248 ft 463 kts 278°
2026-04-30 20:18 51.49764 1.53223 34246 ft 463 kts 278°
2026-04-30 20:18 51.50913 1.43101 34255 ft 464 kts 277°
2026-04-30 20:19 51.52057 1.32906 34252 ft 464 kts 277°
2026-04-30 20:19 51.53187 1.22711 34248 ft 463 kts 277°
2026-04-30 20:20 51.54338 1.12503 34250 ft 464 kts 277°
2026-04-30 20:20 51.55453 1.02300 34245 ft 464 kts 277°
2026-04-30 20:21 51.56556 0.92090 34245 ft 463 kts 277°
2026-04-30 20:21 51.57663 0.81906 34236 ft 463 kts 276°
2026-04-30 20:22 51.58748 0.71708 34232 ft 463 kts 276°
2026-04-30 20:22 51.59819 0.61567 34232 ft 462 kts 276°
2026-04-30 20:23 51.60879 0.51374 34229 ft 463 kts 276°
2026-04-30 20:23 51.61935 0.41232 33752 ft 456 kts 276°
2026-04-30 20:23 51.62454 0.36163 32738 ft 462 kts 276°
2026-04-30 20:24 51.62978 0.31033 31939 ft 465 kts 276°
2026-04-30 20:24 51.63505 0.25905 31224 ft 466 kts 276°
2026-04-30 20:24 51.64026 0.20754 30548 ft 466 kts 276°
2026-04-30 20:24 51.64645 0.15639 29855 ft 467 kts 282°
2026-04-30 20:25 51.67121 0.05949 28578 ft 466 kts 292°
2026-04-30 20:25 51.68488 0.01225 27966 ft 463 kts 292°
2026-04-30 20:26 51.71155 -0.08156 26809 ft 458 kts 291°
2026-04-30 20:26 51.73759 -0.17472 25616 ft 453 kts 291°
2026-04-30 20:26 51.75031 -0.22048 25017 ft 452 kts 291°
2026-04-30 20:27 51.77595 -0.31288 23781 ft 450 kts 291°
2026-04-30 20:27 51.80290 -0.40362 22397 ft 449 kts 302°
2026-04-30 20:28 51.84958 -0.46791 21505 ft 435 kts 330°
2026-04-30 20:28 51.90159 -0.51472 20965 ft 424 kts 329°
2026-04-30 20:29 51.95222 -0.56317 20462 ft 420 kts 329°
2026-04-30 20:30 52.02679 -0.63634 19730 ft 415 kts 328°
2026-04-30 20:30 52.10019 -0.70838 19043 ft 410 kts 328°
2026-04-30 20:31 52.17308 -0.78025 18331 ft 405 kts 328°
2026-04-30 20:32 52.24159 -0.85847 17534 ft 398 kts 306°
2026-04-30 20:32 52.26171 -0.93947 16783 ft 387 kts 277°
2026-04-30 20:33 52.26640 -0.98269 16343 ft 386 kts 277°
2026-04-30 20:33 52.27692 -1.06890 15419 ft 387 kts 278°
2026-04-30 20:33 52.28263 -1.11191 14929 ft 387 kts 279°
2026-04-30 20:34 52.29425 -1.19794 13968 ft 386 kts 279°
2026-04-30 20:34 52.30555 -1.28272 12968 ft 377 kts 279°
2026-04-30 20:35 52.31115 -1.32436 12490 ft 372 kts 279°
2026-04-30 20:35 52.31669 -1.36495 12140 ft 359 kts 279°
2026-04-30 20:35 52.32700 -1.44090 11673 ft 330 kts 279°
2026-04-30 20:36 52.33180 -1.47678 11434 ft 316 kts 278°
2026-04-30 20:36 52.33641 -1.51140 11087 ft 309 kts 278°
2026-04-30 20:36 52.34543 -1.57984 10165 ft 304 kts 278°
2026-04-30 20:37 52.34978 -1.61337 9766 ft 298 kts 278°
2026-04-30 20:37 52.35412 -1.64643 9406 ft 296 kts 278°
2026-04-30 20:37 52.35622 -1.67946 9066 ft 289 kts 265°
2026-04-30 20:37 52.35518 -1.71220 8706 ft 289 kts 262°
2026-04-30 20:38 52.35372 -1.74506 8285 ft 290 kts 262°
2026-04-30 20:38 52.35233 -1.77795 7857 ft 290 kts 263°
2026-04-30 20:38 52.35101 -1.81061 7484 ft 288 kts 263°
2026-04-30 20:39 52.34845 -1.87570 6720 ft 285 kts 264°
2026-04-30 20:39 52.34716 -1.90758 6500 ft 276 kts 263°
2026-04-30 20:39 52.34591 -1.93803 6319 ft 267 kts 263°
2026-04-30 20:40 52.34344 -1.99721 5837 ft 255 kts 263°
2026-04-30 20:40 52.34231 -2.02576 5593 ft 249 kts 263°
2026-04-30 20:40 52.34131 -2.05363 5356 ft 243 kts 263°
2026-04-30 20:41 52.34922 -2.10553 4842 ft 250 kts 313°
2026-04-30 20:41 52.36418 -2.11986 4585 ft 254 kts 347°
2026-04-30 20:41 52.38158 -2.11925 4338 ft 252 kts 20°
2026-04-30 20:41 52.39603 -2.10465 4091 ft 242 kts 53°
2026-04-30 20:42 52.40425 -2.08144 3861 ft 234 kts 74°
2026-04-30 20:42 52.40986 -2.05652 3620 ft 232 kts 75°
2026-04-30 20:42 52.42358 -2.00887 3122 ft 238 kts 51°
2026-04-30 20:43 52.43754 -1.99385 2960 ft 244 kts 27°
2026-04-30 20:43 52.45343 -1.98375 2955 ft 245 kts 24°
2026-04-30 20:43 52.46941 -1.97395 2965 ft 245 kts 25°
2026-04-30 20:44 52.50110 -1.95387 2954 ft 245 kts 25°
2026-04-30 20:44 52.51713 -1.94382 2960 ft 246 kts 24°
2026-04-30 20:44 52.54878 -1.92354 2941 ft 243 kts 25°
2026-04-30 20:45 52.57963 -1.90267 2967 ft 234 kts 32°
2026-04-30 20:45 52.59129 -1.88591 2950 ft 216 kts 66°
2026-04-30 20:45 52.59441 -1.86362 2956 ft 189 kts 104°
2026-04-30 20:46 52.56717 -1.84100 2570 ft 149 kts 176°
2026-04-30 20:46 52.55705 -1.84107 2394 ft 145 kts 176°
2026-04-30 20:47 52.53890 -1.83832 2029 ft 120 kts 158°
2026-04-30 20:47 52.53148 -1.83263 1887 ft 117 kts 152°
2026-04-30 20:48 52.51744 -1.81863 1619 ft 122 kts 146°
2026-04-30 20:48 52.51028 -1.81084 1445 ft 128 kts 146°
2026-04-30 20:48 52.50267 -1.80249 1304 ft 132 kts 145°
2026-04-30 20:48 52.49530 -1.79424 1079 ft 129 kts 144°
2026-04-30 20:49 52.48791 -1.78590 960 ft 129 kts 144°
2026-04-30 20:49 52.48040 -1.77760 757 ft 131 kts 143°
2026-04-30 20:49 52.47291 -1.76920 608 ft 131 kts 143°
2026-04-30 20:50 52.45813 -1.75268 329 ft 106 kts 144°
2026-04-30 20:50 52.45353 -1.74754 329 ft 55 kts 146°
2026-04-30 20:50 52.45187 -1.74570 333 ft 40 kts 146°
2026-04-30 20:50 52.44969 -1.74322 334 ft 15 kts 144°
2026-04-30 20:51 52.44958 -1.74171 335 ft 16 kts 70°
2026-04-30 20:51 52.44986 -1.74005 335 ft 7 kts 76°
2026-04-30 20:51 52.45005 -1.73915 336 ft 10 kts 59°
2026-04-30 20:52 52.45046 -1.73815 334 ft 12 kts 55°
2026-04-30 20:52 52.45106 -1.73710 337 ft 14 kts 44°
2026-04-30 20:52 52.45196 -1.73489 333 ft 0 kts 58°
2026-04-30 20:53 52.45229 -1.73483 337 ft 7 kts 340°
2026-04-30 20:54 52.45283 -1.73537 333 ft 2 kts 327°
2026-04-30 20:54 52.45285 -1.73539 333 ft 0 kts 327°